CFG40Q LIRF-EDDH

Flight info

Callsign CFG40Q
Flight time N/A
Altitude 36000
Route SOVAN DCT AMTEL DCT NEVMO DCT DIKEM DCT SUMIR DCT BRENO DCT KONIN DCT KEMES DCT ABGUS DCT DIRBO/N0396F230 T902 RARUP RARUP3D
Aircraft A321/M-SDE3FGHIRWY/LB1

Departure

Time 2026-05-01 15:28
Airport Rome–Fiumicino Leonardo da Vinci International Airport (LIRF)

Arrival

Time N/A
Airport Hamburg Helmut Schmidt Airport (EDDH)
Time Latitude Longitude Altitude Speed Heading
2026-05-01 14:59 41.79725 12.25644 18 ft 0 kts 297°
2026-05-01 15:07 41.79724 12.25644 18 ft 0 kts 297°
2026-05-01 15:13 41.79704 12.25695 21 ft 2 kts 328°
2026-05-01 15:14 41.79689 12.25697 21 ft 0 kts 24°
2026-05-01 15:16 41.79819 12.25778 18 ft 25 kts 26°
2026-05-01 15:16 41.80130 12.25981 19 ft 21 kts 24°
2026-05-01 15:17 41.80231 12.26045 15 ft 0 kts 25°
2026-05-01 15:18 41.80272 12.26070 14 ft 16 kts 24°
2026-05-01 15:18 41.80405 12.26151 15 ft 10 kts 24°
2026-05-01 15:19 41.80477 12.26091 15 ft 17 kts 276°
2026-05-01 15:19 41.80413 12.25817 17 ft 14 kts 250°
2026-05-01 15:19 41.80381 12.25703 16 ft 12 kts 249°
2026-05-01 15:20 41.80333 12.25528 16 ft 9 kts 250°
2026-05-01 15:20 41.80310 12.25448 18 ft 12 kts 249°
2026-05-01 15:20 41.80263 12.25278 19 ft 24 kts 249°
2026-05-01 15:21 41.80212 12.25072 19 ft 23 kts 258°
2026-05-01 15:21 41.80200 12.24867 20 ft 23 kts 257°
2026-05-01 15:21 41.80147 12.24656 13 ft 24 kts 250°
2026-05-01 15:21 41.80091 12.24451 12 ft 23 kts 249°
2026-05-01 15:22 41.79990 12.24060 14 ft 21 kts 264°
2026-05-01 15:22 41.79955 12.23884 16 ft 18 kts 249°
2026-05-01 15:22 41.79913 12.23734 18 ft 17 kts 249°
2026-05-01 15:23 41.79820 12.23691 15 ft 16 kts 164°
2026-05-01 15:23 41.79699 12.23740 15 ft 24 kts 163°
2026-05-01 15:23 41.79502 12.23823 16 ft 33 kts 161°
2026-05-01 15:23 41.79324 12.23900 17 ft 26 kts 162°
2026-05-01 15:24 41.79153 12.23969 18 ft 25 kts 163°
2026-05-01 15:24 41.78988 12.24037 16 ft 25 kts 159°
2026-05-01 15:24 41.78824 12.24108 14 ft 25 kts 162°
2026-05-01 15:24 41.78659 12.24175 15 ft 25 kts 163°
2026-05-01 15:25 41.78506 12.24240 18 ft 22 kts 162°
2026-05-01 15:25 41.78366 12.24290 19 ft 19 kts 184°
2026-05-01 15:25 41.78297 12.24161 19 ft 17 kts 250°
2026-05-01 15:25 41.78286 12.24021 22 ft 14 kts 303°
2026-05-01 15:26 41.78370 12.23967 19 ft 12 kts 342°
2026-05-01 15:26 41.78373 12.23965 18 ft 0 kts 342°
2026-05-01 15:26 41.78571 12.23884 17 ft 66 kts 343°
2026-05-01 15:27 41.79206 12.23618 17 ft 123 kts 343°
2026-05-01 15:27 41.80168 12.23217 23 ft 164 kts 343°
2026-05-01 15:27 41.81289 12.22742 413 ft 171 kts 345°
2026-05-01 15:28 41.83396 12.21213 1310 ft 194 kts 305°
2026-05-01 15:28 41.83818 12.19414 1595 ft 214 kts 279°
2026-05-01 15:28 41.83665 12.17344 1874 ft 233 kts 251°
2026-05-01 15:29 41.81286 12.14689 3338 ft 235 kts 186°
2026-05-01 15:29 41.79659 12.14681 4066 ft 235 kts 179°
2026-05-01 15:29 41.76406 12.13955 5566 ft 240 kts 192°
2026-05-01 15:30 41.73704 12.13018 6803 ft 243 kts 193°
2026-05-01 15:31 41.66231 12.09547 8833 ft 302 kts 237°
2026-05-01 15:31 41.65921 12.04262 10170 ft 293 kts 303°
2026-05-01 15:32 41.68774 12.00636 11513 ft 286 kts 339°
2026-05-01 15:32 41.72736 12.00665 11945 ft 313 kts 25°
2026-05-01 15:33 41.79570 12.02001 13282 ft 351 kts 356°
2026-05-01 15:34 41.86808 12.01041 15716 ft 348 kts 359°